| time (UTC) | temp F | wind direction | speed knots | gust knots | rain 1hr in | rain 24hr in | rain mn in | humidity % | barometer mb |
| 20260506171122 | 81 | 147 | 3.5 | 4.3 | 0.00 | 0.00 | 0.00 | 68 | 1017.1 |
| 20260506170615 | 80 | 195 | 0.0 | 0.9 | 0.00 | 0.00 | 0.00 | 70 | 1017.2 |
| 20260506170111 | 80 | 172 | 1.7 | 2.6 | 0.00 | 0.00 | 0.00 | 71 | 1017.1 |
| 20260506165610 | 79 | 158 | 2.6 | 2.6 | 0.00 | 0.00 | 0.00 | 72 | 1017.1 |
| 20260506165105 | 80 | 190 | 2.6 | 3.5 | 0.00 | 0.00 | 0.00 | 71 | 1017.0 |
| 20260506164603 | 80 | 200 | 0.9 | 0.9 | 0.00 | 0.00 | 0.00 | 71 | 1017.2 |
| 20260506164100 | 80 | 194 | 2.6 | 3.5 | 0.00 | 0.00 | 0.00 | 71 | 1016.9 |
| 20260506163555 | 79 | 171 | 0.0 | 0.9 | 0.00 | 0.00 | 0.00 | 71 | 1017.1 |
| 20260506163052 | 79 | 188 | 0.9 | 0.9 | 0.00 | 0.00 | 0.00 | 70 | 1017.2 |
| 20260506162548 | 79 | 179 | 0.9 | 0.9 | 0.00 | 0.00 | 0.00 | 70 | 1017.2 |
| 20260506162045 | 79 | 187 | 0.9 | 0.9 | 0.00 | 0.00 | 0.00 | 70 | 1017.1 |
| 20260506161542 | 78 | 149 | 2.6 | 3.5 | 0.00 | 0.00 | 0.00 | 70 | 1017.3 |
| 20260506161033 | 78 | 201 | 2.6 | 3.5 | 0.00 | 0.00 | 0.00 | 70 | 1017.5 |
| 20260506160531 | 77 | 175 | 0.9 | 0.9 | 0.00 | 0.00 | 0.00 | 70 | 1017.6 |
| 20260506160028 | 78 | 191 | 0.9 | 2.6 | 0.00 | 0.00 | 0.00 | 69 | 1017.5 |
| 20260506155527 | 77 | 194 | 0.9 | 2.6 | 0.00 | 0.00 | 0.00 | 68 | 1017.7 |
| 20260506153703 | 78 | 183 | 1.7 | 2.6 | 0.00 | 0.00 | 0.00 | 64 | 1017.6 |
| 20260506153201 | 79 | 215 | 3.5 | 4.3 | 0.00 | 0.00 | 0.00 | 64 | 1017.4 |
| 20260506152658 | 78 | 279 | 0.9 | 0.9 | 0.00 | 0.00 | 0.00 | 63 | 1017.6 |
| 20260506152155 | 79 | 228 | 1.7 | 2.6 | 0.00 | 0.00 | 0.00 | 62 | 1017.8 |
| 20260506151654 | 78 | 226 | 2.6 | 3.5 | 0.00 | 0.00 | 0.00 | 62 | 1017.6 |
| 20260506151150 | 78 | 193 | 1.7 | 2.6 | 0.00 | 0.00 | 0.00 | 65 | 1017.5 |
| 20260506150647 | 78 | 171 | 1.7 | 2.6 | 0.00 | 0.00 | 0.00 | 66 | 1017.6 |
| 20260506150144 | 77 | 183 | 1.7 | 2.6 | 0.00 | 0.00 | 0.00 | 68 | 1017.4 |
| 20260506145641 | 77 | 166 | 2.6 | 3.5 | 0.00 | 0.00 | 0.00 | 69 | 1017.4 |
| 20260506145137 | 77 | 204 | 1.7 | 3.5 | 0.00 | 0.00 | 0.00 | 69 | 1017.4 |
| 20260506144636 | 77 | 179 | 2.6 | 2.6 | 0.00 | 0.00 | 0.00 | 69 | 1017.5 |
| 20260506144132 | 77 | 186 | 3.5 | 4.3 | 0.00 | 0.00 | 0.00 | 68 | 1017.5 |
| 20260506143630 | 77 | 175 | 1.7 | 2.6 | 0.00 | 0.00 | 0.00 | 70 | 1017.3 |
| 20260506143127 | 76 | 186 | 1.7 | 2.6 | 0.00 | 0.00 | 0.00 | 72 | 1016.9 |
| 20260506142626 | 76 | 186 | 3.5 | 3.5 | 0.00 | 0.00 | 0.00 | 72 | 1017.2 |
| 20260506142123 | 76 | 185 | 0.9 | 0.9 | 0.00 | 0.00 | 0.00 | 74 | 1017.0 |
| 20260506141621 | 76 | 193 | 0.9 | 0.9 | 0.00 | 0.00 | 0.00 | 75 | 1017.0 |
| 20260506141119 | 75 | 213 | 0.9 | 0.9 | 0.00 | 0.00 | 0.00 | 76 | 1017.3 |
| 20260506140616 | 75 | 166 | 2.6 | 4.3 | 0.00 | 0.00 | 0.00 | 75 | 1017.3 |
| 20260506140113 | 75 | 186 | 0.9 | 0.9 | 0.00 | 0.00 | 0.00 | 76 | 1017.3 |
| 20260506135610 | 75 | 207 | 0.9 | 0.9 | 0.00 | 0.00 | 0.00 | 75 | 1017.1 |
| 20260506135106 | 75 | 168 | 2.6 | 3.5 | 0.00 | 0.00 | 0.00 | 77 | 1017.1 |
| 20260506134603 | 74 | 169 | 0.0 | 0.9 | 0.00 | 0.00 | 0.00 | 77 | 1017.0 |
| 20260506134058 | 74 | 193 | 1.7 | 2.6 | 0.00 | 0.00 | 0.00 | 76 | 1017.1 |
| 20260506133556 | 74 | 165 | 0.9 | 0.9 | 0.00 | 0.00 | 0.00 | 77 | 1016.9 |
| 20260506133053 | 74 | 183 | 0.9 | 0.9 | 0.00 | 0.00 | 0.00 | 77 | 1017.3 |
| 20260506132550 | 74 | 158 | 0.9 | 0.9 | 0.00 | 0.00 | 0.00 | 77 | 1017.2 |
| 20260506132047 | 74 | 191 | 0.9 | 2.6 | 0.00 | 0.00 | 0.00 | 77 | 1017.0 |
| 20260506131544 | 73 | 161 | 0.9 | 0.9 | 0.00 | 0.00 | 0.00 | 78 | 1017.1 |
| 20260506131041 | 73 | 137 | 0.9 | 0.9 | 0.00 | 0.00 | 0.00 | 78 | 1016.6 |
| 20260506130538 | 73 | 187 | 2.6 | 2.6 | 0.00 | 0.00 | 0.00 | 79 | 1016.9 |
| 20260506130035 | 73 | 180 | 0.0 | 0.9 | 0.00 | 0.00 | 0.00 | 80 | 1017.1 |
| 20260506125533 | 73 | 194 | 0.0 | 0.0 | 0.00 | 0.00 | 0.00 | 81 | 1016.8 |
| 20260506125031 | 72 | 153 | 2.6 | 3.5 | 0.00 | 0.00 | 0.00 | 82 | 1017.0 |
| 20260506124529 | 72 | 192 | 2.6 | 3.5 | 0.00 | 0.00 | 0.00 | 82 | 1016.7 |
| 20260506124026 | 72 | 159 | 0.9 | 2.6 | 0.00 | 0.00 | 0.00 | 82 | 1016.6 |
| 20260506123524 | 72 | 200 | 0.0 | 0.9 | 0.00 | 0.00 | 0.00 | 83 | 1016.7 |
| 20260506123022 | 71 | 194 | 1.7 | 2.6 | 0.00 | 0.00 | 0.00 | 84 | 1016.8 |
| 20260506122518 | 71 | 211 | 0.9 | 2.6 | 0.00 | 0.00 | 0.00 | 85 | 1016.8 |
| 20260506122016 | 70 | 173 | 0.0 | 0.9 | 0.00 | 0.00 | 0.00 | 86 | 1016.7 |
| 20260506121514 | 70 | 191 | 0.0 | 0.9 | 0.00 | 0.00 | 0.00 | 87 | 1016.6 |
| 20260506121010 | 69 | 207 | 0.9 | 0.9 | 0.00 | 0.00 | 0.00 | 88 | 1016.7 |
| 20260506120508 | 69 | 213 | 0.9 | 0.9 | 0.00 | 0.00 | 0.00 | 90 | 1017.0 |
| 20260506120005 | 68 | 183 | 0.0 | 0.0 | 0.00 | 0.00 | 0.00 | 92 | 1016.5 |
| 20260506115503 | 67 | 183 | 0.0 | 0.0 | 0.00 | 0.00 | 0.00 | 94 | 1016.6 |
| 20260506115001 | 67 | 183 | 0.0 | 0.0 | 0.00 | 0.00 | 0.00 | 95 | 1016.6 |
| 20260506114458 | 66 | 182 | 0.0 | 0.0 | 0.00 | 0.00 | 0.00 | 96 | 1016.6 |
| 20260506113956 | 65 | 182 | 0.0 | 0.0 | 0.00 | 0.00 | 0.00 | 97 | 1016.5 |
| 20260506113454 | 65 | 181 | 0.0 | 0.0 | 0.00 | 0.00 | 0.00 | 97 | 1016.4 |
| 20260506112950 | 64 | 181 | 0.0 | 0.0 | 0.00 | 0.00 | 0.00 | 97 | 1016.5 |
| 20260506112448 | 64 | 180 | 0.0 | 0.0 | 0.00 | 0.00 | 0.00 | 97 | 1016.3 |
| 20260506111945 | 64 | 180 | 0.0 | 0.0 | 0.00 | 0.00 | 0.00 | 97 | 1016.1 |
| 20260506111443 | 64 | 180 | 0.0 | 0.0 | 0.00 | 0.00 | 0.00 | 97 | 1016.5 |
| 20260506110939 | 63 | 179 | 0.0 | 0.0 | 0.00 | 0.00 | 0.00 | 97 | 1016.3 |
| 20260506110438 | 63 | 179 | 0.0 | 0.0 | 0.00 | 0.00 | 0.00 | 97 | 1016.4 |
| 20260506105934 | 63 | 179 | 0.0 | 0.0 | 0.00 | 0.00 | 0.00 | 97 | 1016.3 |
| 20260506105430 | 63 | 179 | 0.0 | 0.0 | 0.00 | 0.00 | 0.00 | 97 | 1016.4 |
| 20260506104927 | 63 | 178 | 0.0 | 0.0 | 0.00 | 0.00 | 0.00 | 97 | 1016.4 |
| 20260506104425 | 63 | 178 | 0.0 | 0.0 | 0.00 | 0.00 | 0.00 | 97 | 1016.3 |
| 20260506103924 | 63 | 199 | 0.0 | 0.0 | 0.00 | 0.00 | 0.00 | 97 | 1016.2 |
| 20260506103420 | 63 | 199 | 0.0 | 0.0 | 0.00 | 0.00 | 0.00 | 97 | 1016.2 |
| 20260506102917 | 63 | 199 | 0.0 | 0.0 | 0.00 | 0.00 | 0.00 | 97 | 1016.2 |
| 20260506102416 | 63 | 199 | 0.0 | 0.0 | 0.00 | 0.00 | 0.00 | 97 | 1015.9 |
| 20260506101913 | 63 | 199 | 0.0 | 0.0 | 0.00 | 0.00 | 0.00 | 96 | 1016.2 |
| 20260506101409 | 63 | 199 | 0.0 | 0.0 | 0.00 | 0.00 | 0.00 | 96 | 1016.1 |
| 20260506100906 | 63 | 200 | 0.0 | 0.0 | 0.00 | 0.00 | 0.00 | 96 | 1016.1 |
| 20260506100404 | 63 | 201 | 0.0 | 0.0 | 0.00 | 0.00 | 0.00 | 96 | 1016.2 |
| 20260506095902 | 63 | 201 | 0.0 | 0.0 | 0.00 | 0.00 | 0.00 | 95 | 1015.8 |
| 20260506095400 | 64 | 201 | 0.0 | 0.0 | 0.00 | 0.00 | 0.00 | 95 | 1015.8 |
| 20260506094856 | 64 | 201 | 0.0 | 0.0 | 0.00 | 0.00 | 0.00 | 95 | 1016.1 |
| 20260506094355 | 64 | 201 | 0.0 | 0.0 | 0.00 | 0.00 | 0.00 | 95 | 1016.0 |
| 20260506093852 | 64 | 201 | 0.0 | 0.0 | 0.00 | 0.00 | 0.00 | 95 | 1015.9 |
| 20260506093350 | 64 | 201 | 0.0 | 0.0 | 0.00 | 0.00 | 0.00 | 95 | 1016.0 |
| 20260506092847 | 64 | 201 | 0.0 | 0.0 | 0.00 | 0.00 | 0.00 | 95 | 1016.1 |
| 20260506092345 | 64 | 201 | 0.0 | 0.0 | 0.00 | 0.00 | 0.00 | 95 | 1016.0 |
| 20260506091842 | 64 | 201 | 0.0 | 0.0 | 0.00 | 0.00 | 0.00 | 94 | 1016.0 |
| 20260506091340 | 64 | 201 | 0.0 | 0.0 | 0.00 | 0.00 | 0.00 | 94 | 1016.2 |
| 20260506090837 | 64 | 201 | 0.0 | 0.0 | 0.00 | 0.00 | 0.00 | 94 | 1016.0 |
| 20260506090335 | 65 | 201 | 0.0 | 0.0 | 0.00 | 0.00 | 0.00 | 94 | 1016.0 |
| 20260506085831 | 65 | 201 | 0.0 | 0.0 | 0.00 | 0.00 | 0.00 | 93 | 1016.3 |
| 20260506085327 | 65 | 201 | 0.0 | 0.0 | 0.00 | 0.00 | 0.00 | 93 | 1016.1 |
| 20260506084824 | 65 | 202 | 0.0 | 0.0 | 0.00 | 0.00 | 0.00 | 93 | 1016.3 |
| 20260506084320 | 65 | 202 | 0.0 | 0.0 | 0.00 | 0.00 | 0.00 | 93 | 1016.5 |
| 20260506083817 | 65 | 202 | 0.0 | 0.0 | 0.00 | 0.00 | 0.00 | 93 | 1016.3 |
| 20260506083315 | 65 | 202 | 0.0 | 0.0 | 0.00 | 0.00 | 0.00 | 93 | 1016.2 |
| 20260506082812 | 65 | 202 | 0.0 | 0.0 | 0.00 | 0.00 | 0.00 | 92 | 1016.2 |
| 20260506082308 | 65 | 202 | 0.0 | 0.0 | 0.00 | 0.00 | 0.00 | 92 | 1016.4 |
| 20260506081805 | 65 | 202 | 0.0 | 0.0 | 0.00 | 0.00 | 0.00 | 92 | 1016.1 |
| 20260506081303 | 66 | 202 | 0.0 | 0.0 | 0.00 | 0.00 | 0.00 | 92 | 1016.2 |
| 20260506080800 | 66 | 202 | 0.0 | 0.0 | 0.00 | 0.00 | 0.00 | 92 | 1016.0 |
| 20260506080256 | 66 | 202 | 0.0 | 0.0 | 0.00 | 0.00 | 0.00 | 92 | 1016.3 |
| 20260506073240 | 66 | 202 | 0.0 | 0.0 | 0.00 | 0.00 | 0.00 | 91 | 1015.8 |
| 20260506072737 | 66 | 202 | 0.0 | 0.0 | 0.00 | 0.00 | 0.00 | 91 | 1015.6 |
| 20260506072235 | 66 | 203 | 0.0 | 0.0 | 0.00 | 0.00 | 0.00 | 91 | 1015.8 |
| 20260506071733 | 66 | 203 | 0.0 | 0.9 | 0.00 | 0.00 | 0.00 | 91 | 1015.9 |
| 20260506071230 | 66 | 203 | 0.0 | 0.0 | 0.00 | 0.00 | 0.00 | 90 | 1015.7 |
| 20260506070727 | 66 | 203 | 0.0 | 0.0 | 0.00 | 0.00 | 0.00 | 90 | 1015.8 |
| 20260506070224 | 66 | 203 | 0.0 | 0.0 | 0.00 | 0.00 | 0.00 | 90 | 1015.7 |
| 20260506062201 | 66 | 181 | 0.0 | 0.0 | 0.00 | 0.00 | 0.00 | 89 | 1016.2 |
| 20260506061656 | 66 | 181 | 0.0 | 0.0 | 0.00 | 0.00 | 0.00 | 89 | 1016.1 |
| 20260506061154 | 66 | 181 | 0.0 | 0.0 | 0.00 | 0.00 | 0.00 | 89 | 1016.1 |
| 20260506060653 | 66 | 181 | 0.0 | 0.0 | 0.00 | 0.00 | 0.00 | 89 | 1016.2 |
| 20260506060149 | 66 | 181 | 0.0 | 0.0 | 0.00 | 0.00 | 0.00 | 88 | 1016.0 |
| 20260506051121 | 65 | 182 | 0.0 | 0.0 | 0.00 | 0.00 | 0.00 | 88 | 1016.8 |
| 20260506050620 | 65 | 182 | 0.0 | 0.0 | 0.00 | 0.00 | 0.00 | 88 | 1016.8 |
| 20260506050116 | 65 | 182 | 0.0 | 0.0 | 0.00 | 0.00 | 0.00 | 87 | 1016.8 |
| 20260506045110 | 65 | 182 | 0.0 | 0.0 | 0.00 | 0.00 | 0.00 | 87 | 1017.0 |
| 20260506044608 | 65 | 182 | 0.0 | 0.0 | 0.00 | 0.00 | 0.00 | 87 | 1017.0 |
| 20260506044104 | 65 | 182 | 0.0 | 0.0 | 0.00 | 0.00 | 0.00 | 87 | 1017.3 |
| 20260506043601 | 65 | 182 | 0.0 | 0.0 | 0.00 | 0.00 | 0.00 | 87 | 1017.2 |
| 20260506043100 | 65 | 182 | 0.0 | 0.0 | 0.00 | 0.00 | 0.00 | 87 | 1017.1 |
| 20260506042558 | 65 | 183 | 0.0 | 0.0 | 0.00 | 0.00 | 0.00 | 87 | 1017.2 |
| 20260506042056 | 65 | 183 | 0.0 | 0.0 | 0.00 | 0.00 | 0.00 | 87 | 1017.3 |
| 20260506041554 | 65 | 183 | 0.0 | 0.0 | 0.00 | 0.00 | 0.00 | 86 | 1017.2 |
| 20260506041051 | 65 | 183 | 0.0 | 0.0 | 0.00 | 0.00 | 0.00 | 86 | 1017.1 |
| 20260506040549 | 65 | 183 | 0.0 | 0.0 | 0.00 | 0.00 | 0.00 | 86 | 1017.1 |
| 20260506040044 | 65 | 183 | 0.0 | 0.0 | 0.00 | 0.00 | 0.00 | 85 | 1017.2 |
| 20260506035542 | 65 | 183 | 0.0 | 0.0 | 0.00 | 0.00 | 0.00 | 84 | 1017.1 |
| 20260506035038 | 65 | 183 | 0.0 | 0.0 | 0.00 | 0.00 | 0.00 | 84 | 1017.0 |
| 20260506034536 | 65 | 183 | 0.0 | 0.0 | 0.00 | 0.00 | 0.00 | 84 | 1017.0 |
| 20260506034032 | 66 | 183 | 0.0 | 0.0 | 0.00 | 0.00 | 0.00 | 83 | 1016.9 |
| 20260506033530 | 65 | 183 | 0.9 | 0.9 | 0.00 | 0.00 | 0.00 | 84 | 1016.8 |
| 20260506033027 | 65 | 183 | 0.0 | 0.0 | 0.00 | 0.00 | 0.00 | 84 | 1017.3 |
| 20260506032524 | 65 | 183 | 0.0 | 0.0 | 0.00 | 0.00 | 0.00 | 84 | 1016.8 |
| 20260506032021 | 65 | 183 | 0.0 | 0.0 | 0.00 | 0.00 | 0.00 | 83 | 1017.2 |
| 20260506031519 | 65 | 183 | 0.0 | 0.9 | 0.00 | 0.00 | 0.00 | 84 | 1017.1 |
| 20260506031015 | 65 | 183 | 0.0 | 0.9 | 0.00 | 0.00 | 0.00 | 84 | 1017.0 |
| 20260506030513 | 65 | 183 | 0.0 | 0.0 | 0.00 | 0.00 | 0.00 | 84 | 1016.9 |
| 20260506030010 | 65 | 183 | 0.0 | 0.9 | 0.00 | 0.00 | 0.00 | 84 | 1017.1 |
| 20260506025507 | 65 | 183 | 0.9 | 0.9 | 0.00 | 0.00 | 0.00 | 84 | 1017.1 |
| 20260506025003 | 65 | 183 | 0.0 | 0.0 | 0.00 | 0.00 | 0.00 | 84 | 1017.3 |
| 20260506024500 | 65 | 183 | 0.0 | 0.0 | 0.00 | 0.00 | 0.00 | 83 | 1017.4 |
| 20260506023956 | 65 | 183 | 0.0 | 0.0 | 0.00 | 0.00 | 0.00 | 83 | 1017.4 |
| 20260506023453 | 65 | 183 | 0.0 | 0.0 | 0.00 | 0.00 | 0.00 | 82 | 1017.5 |
| 20260506022950 | 65 | 183 | 0.0 | 0.0 | 0.00 | 0.00 | 0.00 | 82 | 1017.5 |
| 20260506022448 | 65 | 183 | 0.0 | 0.0 | 0.00 | 0.00 | 0.00 | 82 | 1017.6 |
| 20260506021945 | 65 | 183 | 0.0 | 0.0 | 0.00 | 0.00 | 0.00 | 82 | 1017.4 |
| 20260506021442 | 65 | 183 | 0.0 | 0.0 | 0.00 | 0.00 | 0.00 | 81 | 1017.5 |
| 20260506020939 | 66 | 183 | 0.0 | 0.0 | 0.00 | 0.00 | 0.00 | 81 | 1017.3 |
| 20260506020437 | 66 | 183 | 0.0 | 0.0 | 0.00 | 0.00 | 0.00 | 80 | 1017.4 |
| 20260506015934 | 66 | 183 | 0.0 | 0.0 | 0.00 | 0.00 | 0.00 | 80 | 1017.2 |
| 20260506015432 | 66 | 183 | 0.0 | 0.0 | 0.00 | 0.00 | 0.00 | 79 | 1017.2 |
| 20260506014928 | 66 | 183 | 0.0 | 0.0 | 0.00 | 0.00 | 0.00 | 79 | 1017.0 |
| 20260506014425 | 66 | 183 | 0.0 | 0.9 | 0.00 | 0.00 | 0.00 | 79 | 1017.0 |
| 20260506013922 | 66 | 183 | 0.0 | 0.0 | 0.00 | 0.00 | 0.00 | 79 | 1017.1 |
| 20260506013420 | 66 | 183 | 0.0 | 0.0 | 0.00 | 0.00 | 0.00 | 79 | 1016.8 |
| 20260506012916 | 66 | 183 | 0.0 | 0.0 | 0.00 | 0.00 | 0.00 | 79 | 1017.0 |
| 20260506012412 | 66 | 183 | 0.0 | 0.0 | 0.00 | 0.00 | 0.00 | 79 | 1016.9 |
| 20260506011910 | 66 | 183 | 0.0 | 0.0 | 0.00 | 0.00 | 0.00 | 78 | 1017.1 |
| 20260506011407 | 67 | 183 | 0.0 | 0.0 | 0.00 | 0.00 | 0.00 | 78 | 1017.3 |
| 20260506010904 | 67 | 183 | 0.0 | 0.0 | 0.00 | 0.00 | 0.00 | 77 | 1017.0 |
| 20260506010402 | 67 | 183 | 0.0 | 0.0 | 0.00 | 0.00 | 0.00 | 77 | 1016.9 |
| 20260506005858 | 67 | 183 | 0.0 | 0.0 | 0.00 | 0.00 | 0.00 | 77 | 1016.9 |
| 20260506005356 | 67 | 183 | 0.9 | 0.9 | 0.00 | 0.00 | 0.00 | 76 | 1017.0 |
| 20260506004851 | 67 | 183 | 0.0 | 0.0 | 0.00 | 0.00 | 0.00 | 76 | 1016.9 |
| 20260506004349 | 68 | 183 | 0.0 | 0.0 | 0.00 | 0.00 | 0.00 | 75 | 1016.9 |
| 20260506003845 | 68 | 183 | 0.0 | 0.0 | 0.00 | 0.00 | 0.00 | 75 | 1017.1 |
| 20260506003341 | 68 | 183 | 0.0 | 0.0 | 0.00 | 0.00 | 0.00 | 74 | 1016.9 |
| 20260506002838 | 68 | 183 | 0.0 | 0.9 | 0.00 | 0.00 | 0.00 | 74 | 1017.0 |
| 20260506002334 | 68 | 183 | 0.0 | 0.0 | 0.00 | 0.00 | 0.00 | 73 | 1016.9 |
| 20260506001830 | 69 | 183 | 0.0 | 0.0 | 0.00 | 0.00 | 0.00 | 73 | 1017.2 |
| 20260506001327 | 69 | 183 | 0.0 | 0.0 | 0.00 | 0.00 | 0.00 | 73 | 1017.0 |
| 20260506000824 | 69 | 183 | 0.0 | 0.9 | 0.00 | 0.00 | 0.00 | 72 | 1016.8 |
| 20260506000323 | 69 | 183 | 0.0 | 0.0 | 0.00 | 0.00 | 0.00 | 71 | 1017.2 |
| 20260505235819 | 70 | 183 | 0.9 | 0.9 | 0.00 | 0.00 | 0.00 | 70 | 1016.9 |
| 20260505235316 | 70 | 182 | 0.0 | 0.0 | 0.00 | 0.00 | 0.00 | 70 | 1016.8 |
| 20260505234813 | 70 | 182 | 0.9 | 0.9 | 0.00 | 0.00 | 0.00 | 69 | 1017.0 |
| 20260505234311 | 70 | 170 | 2.6 | 2.6 | 0.00 | 0.00 | 0.00 | 68 | 1016.9 |
| 20260505233807 | 70 | 177 | 0.9 | 0.9 | 0.00 | 0.00 | 0.00 | 68 | 1016.6 |
| 20260505233305 | 70 | 141 | 0.0 | 0.0 | 0.00 | 0.00 | 0.00 | 69 | 1017.0 |
| 20260505232802 | 71 | 201 | 1.7 | 2.6 | 0.00 | 0.00 | 0.00 | 68 | 1017.0 |
| 20260505232300 | 71 | 142 | 0.9 | 0.9 | 0.00 | 0.00 | 0.00 | 68 | 1016.7 |
| 20260505231756 | 71 | 138 | 0.9 | 0.9 | 0.00 | 0.00 | 0.00 | 67 | 1016.8 |
| 20260505231255 | 71 | 182 | 2.6 | 2.6 | 0.00 | 0.00 | 0.00 | 66 | 1016.9 |
| 20260505230752 | 71 | 158 | 1.7 | 2.6 | 0.00 | 0.00 | 0.00 | 67 | 1017.1 |
| 20260505230249 | 71 | 142 | 0.9 | 0.9 | 0.00 | 0.00 | 0.00 | 67 | 1017.2 |
| 20260505225746 | 71 | 143 | 2.6 | 2.6 | 0.00 | 0.00 | 0.00 | 66 | 1017.0 |
| 20260505225243 | 72 | 177 | 0.9 | 0.9 | 0.00 | 0.00 | 0.00 | 66 | 1016.7 |
| 20260505224738 | 72 | 187 | 2.6 | 3.5 | 0.00 | 0.00 | 0.00 | 65 | 1017.0 |
| 20260505224236 | 72 | 196 | 1.7 | 2.6 | 0.00 | 0.00 | 0.00 | 65 | 1016.8 |
| 20260505223733 | 72 | 157 | 1.7 | 2.6 | 0.00 | 0.00 | 0.00 | 63 | 1017.1 |
| 20260505223229 | 72 | 168 | 2.6 | 3.5 | 0.00 | 0.00 | 0.00 | 64 | 1016.9 |
| 20260505222725 | 72 | 195 | 1.7 | 2.6 | 0.00 | 0.00 | 0.00 | 63 | 1017.1 |
| 20260505222221 | 72 | 203 | 0.9 | 0.9 | 0.00 | 0.00 | 0.00 | 64 | 1017.4 |
| 20260505221719 | 72 | 206 | 1.7 | 2.6 | 0.00 | 0.00 | 0.00 | 65 | 1016.9 |
| 20260505221215 | 73 | 193 | 1.7 | 2.6 | 0.00 | 0.00 | 0.00 | 64 | 1016.9 |
| 20260505220712 | 73 | 194 | 0.9 | 0.9 | 0.00 | 0.00 | 0.00 | 65 | 1017.0 |
| 20260505220210 | 73 | 194 | 1.7 | 2.6 | 0.00 | 0.00 | 0.00 | 64 | 1017.1 |
| 20260505215708 | 73 | 204 | 2.6 | 3.5 | 0.00 | 0.00 | 0.00 | 65 | 1017.3 |
| 20260505215206 | 73 | 200 | 1.7 | 2.6 | 0.00 | 0.00 | 0.00 | 65 | 1017.2 |
| 20260505214703 | 73 | 186 | 0.9 | 0.9 | 0.00 | 0.00 | 0.00 | 64 | 1017.2 |
| 20260505214200 | 73 | 187 | 0.9 | 0.9 | 0.00 | 0.00 | 0.00 | 64 | 1017.1 |
| 20260505213658 | 73 | 187 | 1.7 | 2.6 | 0.00 | 0.00 | 0.00 | 62 | 1017.5 |
| 20260505213155 | 73 | 193 | 2.6 | 2.6 | 0.00 | 0.00 | 0.00 | 64 | 1017.5 |
| 20260505212650 | 73 | 176 | 1.7 | 2.6 | 0.00 | 0.00 | 0.00 | 64 | 1017.3 |
| 20260505212148 | 73 | 176 | 1.7 | 2.6 | 0.00 | 0.00 | 0.00 | 64 | 1017.3 |
| 20260505211645 | 73 | 194 | 0.9 | 0.9 | 0.00 | 0.00 | 0.00 | 63 | 1017.1 |
| 20260505211142 | 73 | 243 | 1.7 | 2.6 | 0.00 | 0.00 | 0.00 | 61 | 1017.2 |
| 20260505210639 | 73 | 195 | 0.0 | 0.0 | 0.00 | 0.00 | 0.00 | 62 | 1017.3 |
| 20260505210135 | 73 | 181 | 2.6 | 3.5 | 0.00 | 0.00 | 0.00 | 63 | 1017.3 |
| 20260505205633 | 74 | 174 | 0.9 | 0.9 | 0.00 | 0.00 | 0.00 | 62 | 1017.1 |
| 20260505205131 | 74 | 174 | 1.7 | 2.6 | 0.00 | 0.00 | 0.00 | 62 | 1017.0 |
| 20260505204627 | 74 | 174 | 2.6 | 2.6 | 0.00 | 0.00 | 0.00 | 61 | 1017.0 |
| 20260505204126 | 74 | 188 | 1.7 | 2.6 | 0.00 | 0.00 | 0.00 | 62 | 1017.3 |
| 20260505203622 | 75 | 189 | 2.6 | 4.3 | 0.00 | 0.00 | 0.00 | 61 | 1017.2 |
| 20260505203119 | 75 | 192 | 1.7 | 2.6 | 0.00 | 0.00 | 0.00 | 61 | 1017.2 |
| 20260505202615 | 74 | 204 | 0.9 | 0.9 | 0.00 | 0.00 | 0.00 | 62 | 1017.1 |
| 20260505202111 | 74 | 183 | 3.5 | 3.5 | 0.00 | 0.00 | 0.00 | 61 | 1017.4 |
| 20260505201608 | 75 | 187 | 0.9 | 0.9 | 0.00 | 0.00 | 0.00 | 61 | 1017.3 |
| 20260505201106 | 75 | 187 | 2.6 | 2.6 | 0.00 | 0.00 | 0.00 | 61 | 1017.3 |
| 20260505200603 | 76 | 171 | 1.7 | 2.6 | 0.00 | 0.00 | 0.00 | 61 | 1017.4 |
| 20260505200100 | 76 | 171 | 4.3 | 6.1 | 0.00 | 0.00 | 0.00 | 60 | 1017.5 |
| 20260505195555 | 76 | 159 | 1.7 | 2.6 | 0.00 | 0.00 | 0.00 | 60 | 1017.8 |
| 20260505195054 | 77 | 183 | 0.0 | 0.9 | 0.00 | 0.00 | 0.00 | 60 | 1017.7 |
| 20260505194550 | 77 | 186 | 0.0 | 0.9 | 0.00 | 0.00 | 0.00 | 58 | 1017.9 |
| 20260505194046 | 78 | 178 | 4.3 | 4.3 | 0.00 | 0.00 | 0.00 | 57 | 1018.1 |
| 20260505193543 | 80 | 192 | 0.9 | 0.9 | 0.00 | 0.00 | 0.00 | 54 | 1018.1 |
| 20260505193040 | 78 | 193 | 0.9 | 0.9 | 0.00 | 0.00 | 0.00 | 55 | 1018.2 |
| 20260505192539 | 78 | 169 | 0.9 | 0.9 | 0.00 | 0.00 | 0.00 | 55 | 1018.4 |
| 20260505192036 | 77 | 169 | 0.0 | 0.9 | 0.00 | 0.00 | 0.00 | 57 | 1018.4 |
| 20260505191534 | 77 | 177 | 0.9 | 0.9 | 0.00 | 0.00 | 0.00 | 58 | 1018.4 |
| 20260505191032 | 77 | 192 | 0.9 | 0.9 | 0.00 | 0.00 | 0.00 | 56 | 1018.5 |
| 20260505190526 | 76 | 199 | 1.7 | 2.6 | 0.00 | 0.00 | 0.00 | 58 | 1018.5 |
| 20260505190023 | 77 | 174 | 0.0 | 0.9 | 0.00 | 0.00 | 0.00 | 60 | 1018.4 |
| 20260505185520 | 76 | 199 | 2.6 | 3.5 | 0.00 | 0.00 | 0.00 | 59 | 1018.4 |
| 20260505185016 | 75 | 126 | 1.7 | 2.6 | 0.00 | 0.00 | 0.00 | 59 | 1018.4 |
| 20260505184513 | 75 | 128 | 1.7 | 3.5 | 0.00 | 0.00 | 0.00 | 58 | 1018.4 |
| 20260505184009 | 75 | 193 | 1.7 | 3.5 | 0.00 | 0.00 | 0.00 | 59 | 1018.4 |
| 20260505183507 | 76 | 157 | 2.6 | 3.5 | 0.00 | 0.00 | 0.00 | 58 | 1018.2 |
| 20260505183004 | 76 | 193 | 2.6 | 3.5 | 0.00 | 0.00 | 0.00 | 59 | 1018.2 |
| 20260505182500 | 77 | 184 | 1.7 | 2.6 | 0.00 | 0.00 | 0.00 | 59 | 1018.2 |
| 20260505181956 | 77 | 183 | 3.5 | 4.3 | 0.00 | 0.00 | 0.00 | 58 | 1018.4 |
| 20260505181453 | 77 | 186 | 0.0 | 0.9 | 0.00 | 0.00 | 0.00 | 59 | 1018.3 |
| 20260505180950 | 75 | 186 | 1.7 | 2.6 | 0.00 | 0.00 | 0.00 | 62 | 1018.4 |
| 20260505180446 | 74 | 173 | 0.9 | 2.6 | 0.00 | 0.00 | 0.00 | 61 | 1018.3 |
| 20260505175943 | 74 | 173 | 1.7 | 2.6 | 0.00 | 0.00 | 0.00 | 62 | 1018.3 |
| 20260505175439 | 75 | 174 | 1.7 | 2.6 | 0.00 | 0.00 | 0.00 | 62 | 1018.4 |
| 20260505174936 | 74 | 173 | 2.6 | 2.6 | 0.00 | 0.00 | 0.00 | 63 | 1018.4 |
| 20260505174434 | 74 | 173 | 1.7 | 2.6 | 0.00 | 0.00 | 0.00 | 63 | 1018.1 |
| 20260505173930 | 75 | 175 | 1.7 | 2.6 | 0.00 | 0.00 | 0.00 | 63 | 1018.1 |
| 20260505173426 | 74 | 175 | 1.7 | 3.5 | 0.00 | 0.00 | 0.00 | 63 | 1018.1 |
| 20260505172923 | 75 | 175 | 1.7 | 2.6 | 0.00 | 0.00 | 0.00 | 61 | 1018.6 |
| 20260505172422 | 75 | 212 | 0.9 | 0.9 | 0.00 | 0.00 | 0.00 | 60 | 1018.6 |
| 20260505171920 | 75 | 198 | 0.9 | 2.6 | 0.00 | 0.00 | 0.00 | 60 | 1018.6 |
| 20260505171418 | 75 | 171 | 2.6 | 3.5 | 0.00 | 0.00 | 0.00 | 62 | 1018.7 |